Regional Weather Roundup
Issued by NWS

Home | Current Version | Previous Version | Text Only | Print | Product List | Glossary Off
Versions: 1 2 3 4 5 6 7 8 9 10 11 12 13 14 15 16 17 18 19 20 21 22 23 24 25 26 27 28 29 30 31 32 33 34 35 36 37 38 39 40 41 42 43 44 45 46 47 48 49 50

208
ASUS44 KLIX 162105
RWRLA
LOUISIANA WEATHER ROUNDUP
NATIONAL WEATHER SERVICE NEW ORLEANS LA
400 PM CDT WED APR 16 2014

NOTE: "FAIR" INDICATES FEW OR NO CLOUDS BELOW 12,000 FEET WITH NO
      SIGNIFICANT WEATHER AND/OR OBSTRUCTIONS TO VISIBILITY.
      SKY/WX - SKY CONDITION AND SIGNIFICANT WEATHER.
      TMP - AIR TEMPERATURE.    DP   - DEWPOINT TEMPERATURE.
      RH  - RELATIVE HUMIDITY.  PRES - PRESSURE.
      HX  - HEAT INDEX.         WCI  - WIND CHILL INDEX.

*  THESE STATIONS ARE NOT NWS OR FAA STATIONS AND ARE NOT UNDER
   NWS QUALITY CONTROL.

LAZ040-048-061>063-065-066-069-162200-
SOUTHEAST LOUISIANA

CITY           SKY/WX    TMP DP  RH WIND       PRES   REMARKS
N.O. AUDUBON     N/A     64  41  42 MISG        N/A
N.O. INTL ARPT MOSUNNY   63  41  44 NE14      30.13F
N.O. LAKEFRONT SUNNY     60  40  47 NE8       30.16F
N.O. DOWNTOWN* FAIR      61  37  41 E6        30.15F
SLIDELL        SUNNY     61  40  45 S5        30.14F
BATON ROUGE    MOSUNNY   65  36  34 CALM      30.12F
BOOTHVILLE     CLOUDY    59  45  59 NE6       30.16F
BELLE CHASSE   MOSUNNY   62  42  47 NE9       30.13F
BOGALUSA*        N/A     66  30  25 W3        30.15F
GALLIANO*      MOCLDY    63  46  54 E6        30.14S
NEW ROADS*     FAIR      63  41  44 SE6       30.13F
GONZALES*      FAIR      65  44  46 E6        30.12F
HAMMOND*       SUNNY     66  32  28 W3        30.15F
HOUMA*         MOSUNNY   64  43  45 NE3       30.14F
PORT FOURCHON* CLOUDY    59  46  63 E8        30.15F

$$

LAZ041-044-053-054-162200-
SOUTHWEST LOUISIANA

CITY           SKY/WX    TMP DP  RH WIND       PRES   REMARKS
LAKE CHARLES   PTSUNNY   65  44  46 VRB7      30.11F
LAFAYETTE      MOSUNNY   63  46  54 CALM      30.12F
PATTERSON      SUNNY     66  45  45 E3        30.15F
SALT POINT       N/A     65  47  52 VRB5      30.12F
NEW IBERIA     MOSUNNY   65  46  50 S9        30.12F
CHENAULT AIRPK MOSUNNY   63  39  42 S5        30.12F

$$

LAZ027-028-162200-
CENTRAL LOUISIANA

CITY           SKY/WX    TMP DP  RH WIND       PRES   REMARKS
FORT POLK      PTSUNNY   63  36  36 S10G16    30.09F
ALEXANDRIA INT PTSUNNY   62  39  42 SE8G17    30.10F
ALEXANDRIA     MOSUNNY   66  33  29 SE10G16   30.12F

$$

LAZ001-002-162200-
NORTHWEST LOUISIANA

CITY           SKY/WX    TMP DP  RH WIND       PRES   REMARKS
SHREVEPORT     PTSUNNY   65  33  30 SE9       30.08F
BARKSDALE AFB  MOSUNNY   62  31  31 SE10      30.09F
DTN SHREVEPORT MOSUNNY   60  35  39 SE8       30.09F

$$

LAZ014-016-162200-
NORTHEAST LOUISIANA

CITY           SKY/WX    TMP DP  RH WIND       PRES   REMARKS
MONROE         MOSUNNY   61  34  36 S7        30.14F
TALLULAH       SUNNY     61  34  36 SE3       30.13F

$$




USA.gov is the U.S. government's official web portal to all federal, state and local government web resources and services.